EHI
0 0 0 0 0 0 0 0 0 0 0 0 0 0 0 0 0 0 0 0 0 1 7 15 19 21 26 29 32 34 34 36 42 48 51 54 56 54 50 48 44 40 39 38 34 27 19 15 14
0 0 0 0 0 0 0 0 0 0 0 0 0 0 0 0 0 0 0 0 0 1 6 14 18 20 24 27 30 32 32 33 37 44 49 52 52 51 48 46 45 43 42 39 34 27 21 16 15
0 0 0 0 0 0 0 0 0 0 0 0 0 0 0 0 0 0 0 0 0 1 6 13 17 19 21 23 27 30 31 30 32 38 44 48 47 44 42 42 44 46 45 39 32 26 23 18 15
0 0 0 0 0 0 0 0 0 0 0 0 0 0 0 0 0 0 0 0 0 1 6 11 16 19 20 20 23 27 28 28 30 35 40 43 42 40 37 37 41 44 43 36 28 24 23 19 14
0 0 0 0 0 0 0 0 0 0 0 0 0 0 0 0 0 0 0 0 0 2 6 10 14 18 19 19 19 22 24 25 29 32 35 38 39 38 34 33 37 40 39 32 25 21 21 18 13
0 0 0 0 0 0 0 0 0 0 0 0 0 0 0 0 0 0 0 0 1 4 7 9 12 15 18 18 17 18 19 21 24 27 31 34 35 35 32 30 33 36 33 28 22 19 19 15 11
0 0 0 0 0 0 0 0 0 0 0 0 0 0 0 0 0 0 0 0 1 3 6 8 10 12 15 16 15 15 14 15 19 23 26 28 30 31 29 27 29 29 27 24 19 18 17 14 10
0 0 0 0 0 0 0 0 0 0 0 0 0 0 0 0 0 0 0 0 1 3 5 7 9 10 12 12 13 12 11 11 14 17 20 20 22 24 24 23 24 24 23 20 17 17 16 13 10
0 0 0 0 0 0 0 0 0 0 0 0 0 0 0 0 0 0 0 0 1 2 4 6 7 9 10 10 11 11 10 9 10 11 11 11 14 16 17 16 17 18 18 16 14 13 11 8 7
0 0 0 0 0 0 0 0 0 0 0 0 0 0 0 0 0 0 0 0 0 1 2 5 6 8 9 10 10 10 9 8 7 6 6 7 9 10 10 9 9 11 12 10 9 7 5 4 3
0 0 0 0 0 0 0 0 0 0 0 0 0 0 0 0 0 0 0 0 0 0 1 4 6 7 8 10 10 9 9 8 6 4 4 5 6 7 6 6 5 5 6 5 4 2 1 1 1
0 0 0 0 0 0 0 0 0 0 0 0 0 0 0 0 0 0 0 0 0 0 1 3 6 7 7 9 9 9 9 8 6 4 3 4 5 5 5 5 4 3 3 4 3 1 0 0 0
0 0 0 0 0 0 0 0 0 0 0 0 0 0 0 0 0 0 0 0 0 0 1 3 6 6 6 6 7 7 7 7 5 4 3 3 4 4 4 3 2 2 3 3 2 1 0 0 0
0 0 0 0 0 0 0 0 0 0 0 0 0 0 0 0 0 0 0 0 0 0 1 3 5 6 5 4 4 5 5 5 4 3 2 2 3 3 2 1 1 1 2 3 2 1 0 0 0
0 0 0 0 0 0 0 0 0 0 0 0 0 0 0 0 0 0 0 0 0 0 1 3 4 4 3 2 3 4 4 3 3 3 2 1 1 2 1 0 0 0 1 3 2 1 0 0 0
0 0 0 0 0 0 0 0 0 0 0 0 0 0 0 0 0 0 0 0 0 0 0 1 3 2 1 1 2 3 3 2 2 3 2 1 1 2 1 0 0 0 1 2 2 1 0 0 0
0 0 0 0 0 0 0 0 0 0 0 0 0 0 0 0 0 0 0 0 0 0 0 1 2 1 0 1 2 3 2 1 1 2 2 1 1 2 1 0 0 0 0 1 1 1 0 0 0
0 0 0 0 0 0 0 0 0 0 0 0 0 0 0 0 0 0 0 0 0 0 0 1 1 1 0 1 2 2 1 0 1 2 2 1 1 2 1 0 0 0 0 0 0 0 0 0 0
0 0 0 0 0 0 0 0 0 0 0 0 0 0 0 0 0 0 0 0 0 0 0 0 0 0 0 0 1 1 0 0 1 2 2 1 1 2 1 0 0 0 0 0 0 0 0 0 0
0 0 0 0 0 0 0 0 0 0 0 0 0 0 0 0 0 0 0 0 0 0 0 0 0 0 0 0 0 0 0 0 0 1 1 0 1 1 1 0 0 0 0 0 0 0 0 0 0
0 0 0 0 0 0 0 0 0 0 0 0 0 0 0 0 0 0 0 0 0 0 0 0 0 0 0 0 0 0 0 0 0 0 0 0 0 0 0 0 0 0 0 0 0 0 0 0 0
0 0 0 0 0 0 0 0 0 0 0 0 0 0 0 0 0 0 0 0 0 0 0 0 0 0 0 0 0 0 0 0 0 0 0 0 0 0 0 0 0 0 0 0 0 0 0 0 0
0 0 0 0 0 0 0 0 0 0 0 0 0 0 0 0 0 0 0 0 0 0 0 0 0 0 0 0 0 0 0 0 0 0 0 0 0 0 0 0 0 0 0 0 0 0 0 0 0
0 0 0 0 0 0 0 0 0 0 0 0 0 0 0 0 0 0 0 0 0 0 0 0 0 0 0 0 0 0 0 0 0 0 0 0 0 0 0 0 0 0 0 0 0 0 0 0 0
0 0 0 0 0 0 0 0 0 0 0 0 0 0 0 0 0 0 0 0 0 0 0 0 0 0 0 0 0 0 0 0 0 0 0 0 0 0 0 0 0 0 0 0 0 0 0 0 0
0 0 0 0 0 0 0 0 0 0 0 0 0 0 0 0 0 0 0 0 0 0 0 0 0 0 0 0 0 0 0 0 0 0 0 0 0 0 0 0 0 0 0 0 0 0 0 0 0
0 0 0 0 0 0 0 0 0 0 0 0 0 0 0 0 0 0 0 0 0 0 0 0 0 0 0 0 0 0 0 0 0 0 0 0 0 0 0 0 0 0 0 0 0 0 0 0 0
0 0 0 0 0 0 0 0 0 0 0 0 0 0 0 0 0 0 0 0 0 0 0 0 0 0 0 0 0 0 0 0 0 0 0 0 0 0 0 0 0 0 0 0 0 0 0 0 0
0 0 0 0 0 0 0 0 0 0 0 0 0 0 0 0 0 0 0 0 0 0 0 0 0 0 0 0 0 0 0 0 0 0 0 0 0 0 0 0 0 0 0 0 0 0 0 0 0
0 0 0 0 0 0 0 0 0 0 0 0 0 0 0 0 0 0 0 0 0 0 0 0 0 0 0 0 0 0 0 0 0 0 0 0 0 0 0 0 0 0 0 0 0 0 0 0 0
Wind_Speed
8 4 2 4 6 3 3 4 2 1 2 3 3 2 1 1 1 2 3 6 9 7 5 5 4 2 2 5 6 6 6 8 9 11 12 13 15 16 17 17 17 16 15 15 15 14 14 14 14
3 2 5 5 4 2 5 3 2 1 3 5 4 3 2 1 2 2 6 10 9 7 6 5 7 4 2 3 5 6 6 7 8 10 11 13 15 16 16 16 16 16 15 15 14 14 14 14 14
3 4 5 4 3 5 3 0 2 3 3 4 4 3 2 2 3 2 5 9 9 8 7 7 9 6 4 2 4 6 6 7 7 9 10 13 14 15 16 16 16 16 15 15 15 14 14 14 14
4 5 5 3 4 3 1 1 3 4 5 4 3 5 3 2 1 3 7 8 9 8 7 7 9 7 5 3 3 4 5 7 7 8 10 11 14 15 15 15 15 15 15 15 15 15 15 15 14
5 5 3 0 4 2 2 3 3 3 4 3 3 4 5 2 2 5 8 9 8 7 7 7 9 8 6 5 4 4 5 6 7 8 9 11 11 13 14 14 15 15 16 16 16 16 16 15 15
5 5 3 3 4 2 2 3 2 3 3 4 3 4 6 3 5 8 8 8 7 7 7 7 9 9 7 6 5 4 5 6 6 7 9 10 10 11 13 15 15 16 16 16 16 17 16 16 16
5 4 3 2 2 3 2 3 1 3 5 4 3 4 5 5 7 9 9 8 7 6 6 6 5 5 7 7 6 6 5 7 7 7 8 9 10 11 12 13 15 16 16 16 17 17 17 17 16
4 4 2 2 3 3 2 3 1 3 5 4 1 3 5 7 10 10 8 7 6 6 6 6 6 4 3 4 6 6 6 6 7 7 6 7 8 10 11 11 13 15 16 17 17 17 17 17 16
4 4 2 3 3 3 3 4 4 3 4 4 3 5 7 9 10 10 9 8 8 9 7 6 6 5 3 3 5 4 5 5 6 6 6 5 5 6 7 8 12 14 15 16 17 17 17 16 14
4 3 4 2 2 3 5 5 5 4 6 6 7 7 7 8 9 9 9 10 10 11 9 6 5 5 4 3 3 2 3 2 3 4 5 4 3 4 5 7 10 12 13 15 16 17 15 11 6
2 3 2 2 3 3 5 5 4 3 7 8 9 10 8 8 10 10 9 8 9 9 9 8 6 5 4 3 2 2 2 2 2 3 4 3 3 3 3 4 5 7 9 8 10 10 6 6 6
1 2 2 3 3 3 5 4 4 6 11 7 7 8 8 8 9 10 10 10 10 10 10 8 6 5 5 4 3 2 2 2 2 3 4 3 3 3 3 3 4 4 4 5 5 5 7 7 8
0 3 3 5 6 6 6 7 7 10 11 9 7 8 8 9 9 9 9 9 9 9 10 8 7 6 6 5 4 3 3 3 4 3 4 4 4 5 4 3 4 5 5 6 6 6 7 8 8
2 4 6 6 5 4 5 8 5 10 6 6 7 8 8 8 9 9 9 10 10 10 10 9 8 7 6 6 5 4 4 4 3 4 4 5 5 5 5 4 4 5 5 6 7 7 7 7 7
1 4 6 3 3 2 4 9 7 8 5 7 8 8 9 8 8 9 10 10 10 10 10 9 8 7 6 7 7 5 4 4 4 5 5 6 6 6 6 6 5 5 6 6 6 6 6 6 6
3 4 5 5 2 2 2 11 8 5 5 8 9 9 8 9 8 9 10 9 9 9 9 9 8 7 7 7 6 5 4 5 5 5 5 7 7 8 7 6 6 5 5 6 7 7 6 6 6
5 3 5 8 3 2 2 12 11 7 6 10 10 9 8 9 9 9 9 8 8 9 9 8 7 7 8 7 6 6 5 5 5 5 6 7 8 8 7 7 6 6 5 6 8 7 6 7 7
3 3 5 7 5 3 8 15 16 10 7 9 9 8 8 9 10 9 8 8 8 8 8 8 8 8 7 6 5 4 5 5 5 5 7 8 7 8 7 6 8 7 6 7 8 8 6 6 6
3 4 9 10 6 6 11 17 17 11 7 8 7 7 8 9 8 8 8 9 8 7 8 8 8 7 5 4 3 4 5 4 5 6 8 9 8 8 8 7 8 8 7 9 9 7 8 6 5
3 5 8 9 4 7 10 16 13 9 7 6 6 7 8 9 9 9 9 8 8 8 9 8 7 7 6 5 4 4 5 5 5 5 7 9 9 9 8 8 8 8 7 9 10 8 7 6 7
4 6 7 8 9 5 8 11 6 5 3 4 5 6 7 8 9 10 10 10 9 9 9 8 8 8 7 6 4 4 4 4 4 5 5 8 10 11 10 10 9 9 9 10 11 11 11 9 7
6 5 6 7 6 6 3 9 8 5 7 6 7 6 8 8 8 9 10 11 10 10 9 9 8 8 7 5 4 5 6 7 7 5 5 7 9 11 10 10 10 10 9 10 12 11 9 11 9
6 4 4 4 2 4 2 4 12 4 7 7 7 7 7 8 8 9 10 10 11 9 9 8 8 8 7 6 5 5 7 7 6 5 6 7 8 10 11 10 9 9 9 10 11 11 11 10 10
2 3 1 3 3 4 4 4 11 5 6 6 5 7 8 9 9 9 9 10 10 9 9 8 9 9 8 7 6 6 8 9 8 7 7 6 6 7 10 10 9 9 9 10 10 11 14 11 10
4 5 6 7 5 7 2 5 13 8 6 6 8 9 9 9 9 10 11 11 11 11 10 9 9 10 9 8 8 8 9 9 9 9 7 7 6 6 9 9 8 8 8 9 10 10 13 13 13
1 4 4 3 6 7 4 9 11 7 6 6 7 8 8 9 9 10 10 10 10 11 11 10 10 10 10 9 9 9 9 6 7 8 7 7 6 7 8 10 10 10 10 10 10 9 11 12 12
3 2 3 3 2 6 9 9 13 5 6 6 6 7 9 10 10 10 10 10 10 11 11 10 10 10 10 10 10 10 8 7 7 7 6 6 6 6 8 9 10 10 11 11 11 10 11 11 12
3 5 4 3 2 7 9 7 8 7 8 7 7 8 9 9 10 11 10 10 10 9 10 9 9 10 10 9 9 9 8 8 8 6 6 6 6 6 7 8 10 10 11 11 11 10 11 11 11
4 3 4 3 4 4 8 11 8 8 8 8 9 9 10 10 11 10 10 10 10 9 9 9 9 10 9 9 9 9 8 8 7 6 6 6 6 7 7 8 9 10 11 11 11 11 12 12 12
5 6 7 5 6 5 6 14 6 7 7 7 9 9 10 10 10 10 11 10 9 9 9 9 9 10 10 9 9 9 8 7 7 6 6 6 7 7 7 7 8 9 10 11 13 13 13 13 14
Wind_Direction
348 353 49 55 58 58 232 239 231 307 315 314 296 268 191 196 178 181 296 334 337 338 336 324 328 321 218 193 185 185 179 175 175 174 171 169 166 164 163 163 161 158 156 154 151 148 146 143 141
345 12 52 63 101 191 248 236 233 248 311 327 344 2 23 350 1 23 343 331 339 347 345 337 338 320 292 220 196 189 189 185 183 180 178 176 173 170 168 168 166 163 161 157 154 151 147 146 144
14 47 77 85 150 193 210 240 281 312 336 7 356 359 5 319 358 355 319 326 344 349 349 343 343 330 302 274 219 203 195 193 192 190 185 184 181 179 176 173 170 167 164 160 157 154 151 149 148
59 47 55 90 217 223 232 311 320 334 350 15 8 327 317 311 352 304 321 343 352 345 339 342 348 342 327 302 264 217 203 199 198 196 194 190 188 186 183 178 174 169 166 164 161 159 157 155 154
57 74 76 244 244 253 277 313 333 349 337 345 355 309 288 266 305 329 341 346 347 337 335 335 341 336 332 322 301 254 219 208 206 205 203 197 193 190 186 182 177 173 171 168 166 164 162 161 159
59 68 107 226 246 276 303 320 337 341 324 326 337 297 272 281 338 337 339 337 333 328 325 326 331 334 328 318 308 298 248 224 218 215 210 204 197 192 190 186 182 178 175 172 171 169 167 166 162
98 105 168 210 260 284 310 338 16 324 313 299 293 287 281 305 320 327 328 327 327 328 324 324 312 313 324 323 310 303 287 245 228 226 220 211 203 197 194 192 186 182 180 177 175 174 171 170 165
109 105 140 224 233 254 318 333 313 301 282 284 268 258 277 298 318 323 323 323 324 328 329 324 315 301 300 303 313 305 306 283 245 231 229 222 208 203 199 192 190 186 185 182 179 177 175 172 167
81 89 199 222 223 259 323 323 306 284 272 286 261 250 272 306 319 323 325 324 324 325 324 316 320 305 296 298 310 309 298 300 270 234 229 223 212 201 200 196 193 189 188 186 184 181 177 172 169
83 155 216 224 221 276 300 293 297 310 298 286 287 287 298 313 321 319 321 320 321 317 316 314 317 312 291 293 300 279 276 272 271 238 217 214 213 207 201 197 196 193 189 188 186 183 177 168 162
106 189 235 271 272 280 287 286 278 273 275 263 276 292 306 313 317 315 309 302 302 301 306 311 311 311 297 275 270 271 271 255 260 254 228 214 204 202 194 190 191 191 188 186 183 181 173 166 160
82 250 245 269 293 293 275 277 274 239 248 264 278 289 300 307 308 306 306 303 301 302 299 302 306 310 299 276 256 248 251 258 249 247 238 211 202 198 198 198 196 192 187 183 173 175 169 167 167
269 283 286 279 288 273 265 259 261 260 264 283 292 299 297 298 299 296 296 296 294 295 297 298 300 299 301 288 263 256 233 243 246 238 237 220 206 201 196 203 198 195 189 182 174 173 173 172 172
284 288 291 286 280 274 270 274 259 268 282 294 297 293 292 291 294 301 308 308 305 296 294 293 294 288 292 290 270 252 237 235 241 238 235 227 214 205 198 199 203 199 192 187 182 179 175 178 176
334 325 318 291 280 284 308 294 238 265 308 307 301 297 297 295 297 299 300 301 299 293 290 287 287 283 283 285 272 257 239 231 237 242 231 231 221 210 202 197 199 204 193 186 181 179 173 174 179
26 19 329 304 306 297 339 285 274 295 316 303 300 301 299 298 296 294 296 299 300 298 292 287 286 286 281 272 268 260 244 233 232 236 230 229 226 212 205 202 201 200 196 186 183 180 181 178 180
28 349 297 301 293 296 261 270 280 299 301 295 298 301 299 301 302 298 298 298 299 295 292 292 291 287 283 272 261 255 245 236 233 232 229 224 226 215 210 208 203 193 199 194 189 184 182 182 180
288 286 280 280 288 285 270 270 284 292 281 282 290 298 303 301 298 300 302 302 299 297 297 293 294 286 279 275 265 259 247 238 232 232 227 221 224 216 211 212 204 193 199 199 189 183 183 183 175
213 240 269 269 274 288 270 278 285 287 282 280 288 297 301 302 300 306 309 311 310 308 305 294 294 294 289 281 263 257 253 241 234 232 227 220 221 215 210 215 206 199 203 205 191 182 177 179 163
233 266 273 285 291 290 284 283 277 273 259 260 279 290 298 305 312 314 315 315 317 314 307 302 297 295 284 269 259 249 259 247 238 237 230 222 221 214 213 214 212 205 204 206 195 180 176 178 175
255 235 256 280 314 310 314 297 281 284 266 277 279 284 294 296 303 311 316 316 317 314 307 304 303 296 288 278 275 272 268 260 246 243 235 226 223 216 211 212 215 211 204 205 198 188 182 180 186
274 246 257 287 319 303 10 303 287 286 298 291 293 299 298 300 302 308 314 315 311 306 307 303 300 296 293 285 274 262 257 258 251 240 238 233 224 218 215 209 213 215 212 203 199 196 189 179 183
247 287 282 284 239 296 278 254 284 304 288 288 292 297 300 299 299 302 304 303 303 305 308 304 303 305 303 296 280 271 263 261 258 241 235 232 228 219 216 209 209 214 215 207 199 196 191 189 186
281 339 9 54 68 291 244 214 281 257 247 281 291 299 301 303 304 301 302 304 306 311 311 311 311 311 306 297 290 273 269 267 259 247 240 235 230 221 214 211 209 212 213 209 204 201 196 195 191
48 45 4 351 353 262 254 241 256 258 246 254 279 292 299 302 307 311 312 313 313 315 314 314 312 309 310 307 298 285 272 265 255 246 240 241 232 224 213 210 208 211 213 213 208 206 202 196 193
151 128 145 255 273 292 295 250 258 264 270 265 271 282 298 305 307 305 306 308 309 310 310 310 310 308 310 309 303 291 280 266 256 245 240 237 235 228 216 212 209 211 211 213 208 208 208 200 197
144 173 161 157 286 283 272 280 295 275 285 282 285 295 299 301 303 305 308 308 307 308 305 303 304 307 308 306 306 295 283 273 267 261 251 243 242 234 220 215 212 210 211 210 206 207 207 202 198
161 147 112 139 267 282 285 270 261 282 284 293 293 292 294 299 301 305 307 304 302 300 301 302 302 304 302 304 304 302 290 278 270 257 251 250 244 244 226 220 214 211 211 208 205 204 203 204 201
145 153 157 169 192 225 282 272 231 241 259 274 282 285 290 296 300 301 302 301 300 305 306 305 308 308 308 307 306 304 295 288 277 257 249 245 242 243 235 226 219 214 212 205 200 202 199 204 202
181 186 163 186 232 215 251 271 253 240 256 271 283 291 297 298 298 298 300 303 306 309 311 312 313 312 309 308 307 306 299 295 287 271 259 245 241 244 242 231 223 220 215 202 196 199 199 203 202